When you browse on this site, cookies collect data to enhance your experience and personalize the content and advertising you see.
Visit our Privacy Policy to learn more. By continuing to use the site, you agree to this use of cookies and data.
  • In Hungary
  • List of Countries
  • For 7 days
  • Water Temperature
  • Weather Map
  • News
  • Weather Widgets
  • user-avatar
    Login

    Hourly Weather White Rock

    Today, 13 November, Wednesday

    Time Temperature Precipitation Wind Pressure Humidity
    00:00 +9°C° 0 mm 1 mps 759 mmHg 95%
    01:00 +9°C° 0 mm 1 mps 759 mmHg 95%
    02:00 +9°C° 0 mm 1 mps 759 mmHg 94%
    03:00 +8°C° 0 mm 0 mps 759 mmHg 94%
    04:00 +8°C° 0 mm 0 mps 759 mmHg 94%
    05:00 +9°C° 0 mm 1 mps 759 mmHg 94%
    06:00 +9°C° 0 mm 1 mps 759 mmHg 94%
    07:00 +8°C° 0 mm 1 mps 759 mmHg 94%
    08:00 +9°C° 0 mm 1 mps 759 mmHg 92%
    09:00 +10°C° 0 mm 1 mps 759 mmHg 89%
    10:00 +11°C° 0 mm 1 mps 759 mmHg 86%
    11:00 +12°C° 0 mm 1 mps 758 mmHg 83%
    12:00 +12°C° 0 mm 1 mps 758 mmHg 80%
    13:00 +13°C° 0 mm 1 mps 757 mmHg 77%
    14:00 +12°C° 0 mm 1 mps 757 mmHg 80%
    15:00 +12°C° 0 mm 1 mps 757 mmHg 83%
    16:00 +10°C° 0 mm 2 mps 757 mmHg 87%
    17:00 +9°C° 0 mm 2 mps 757 mmHg 87%
    18:00 +9°C° 0 mm 2 mps 757 mmHg 88%
    19:00 +8°C° 0 mm 2 mps 757 mmHg 88%
    20:00 +8°C° 0 mm 2 mps 757 mmHg 87%
    21:00 +9°C° 0 mm 1 mps 756 mmHg 86%
    22:00 +8°C° 0 mm 1 mps 756 mmHg 86%
    23:00 +8°C° 0 mm 1 mps 756 mmHg 84%

    Tomorrow, 14 November, Thursday

    Time Temperature Precipitation Wind Pressure Humidity
    00:00 +9°C° 0 mm 1 mps 756 mmHg 82%
    01:00 +9°C° 0 mm 1 mps 756 mmHg 80%
    02:00 +8°C° 0 mm 1 mps 756 mmHg 80%
    03:00 +8°C° 0 mm 1 mps 756 mmHg 80%
    04:00 +8°C° 0 mm 1 mps 755 mmHg 80%
    05:00 +8°C° 0 mm 1 mps 755 mmHg 79%
    06:00 +8°C° 0 mm 1 mps 755 mmHg 79%
    07:00 +7°C° 0 mm 1 mps 755 mmHg 79%
    08:00 +8°C° 0 mm 1 mps 755 mmHg 77%
    09:00 +9°C° 0 mm 1 mps 755 mmHg 74%
    10:00 +10°C° 0 mm 1 mps 755 mmHg 72%
    11:00 +11°C° 0 mm 1 mps 754 mmHg 70%
    12:00 +12°C° 0 mm 1 mps 754 mmHg 67%
    13:00 +11°C° 0 mm 0 mps 754 mmHg 65%
    14:00 +11°C° 0 mm 0 mps 754 mmHg 68%
    15:00 +10°C° 0 mm 0 mps 754 mmHg 71%
    16:00 +10°C° 0 mm 0 mps 753 mmHg 75%
    17:00 +10°C° 0 mm 0 mps 753 mmHg 74%
    18:00 +10°C° 0 mm 1 mps 754 mmHg 74%
    19:00 +10°C° 0 mm 1 mps 754 mmHg 73%
    20:00 +10°C° 0.5 mm 1 mps 754 mmHg 78%
    21:00 +9°C° 0.5 mm 2 mps 754 mmHg 83%
    22:00 +8°C° 0.5 mm 2 mps 754 mmHg 89%
    23:00 +8°C° 0.4 mm 2 mps 754 mmHg 90%

    Day after tomorrow, 15 November, Friday

    Time Temperature Precipitation Wind Pressure Humidity
    00:00 +9°C° 0.4 mm 2 mps 754 mmHg 92%
    01:00 +9°C° 0.4 mm 2 mps 754 mmHg 93%
    02:00 +9°C° 0.8 mm 2 mps 754 mmHg 96%
    03:00 +9°C° 0.8 mm 2 mps 754 mmHg 96%
    04:00 +9°C° 0.8 mm 2 mps 754 mmHg 96%
    05:00 +9°C° 0 mm 2 mps 755 mmHg 96%
    06:00 +9°C° 0 mm 3 mps 755 mmHg 95%
    07:00 +9°C° 0 mm 3 mps 756 mmHg 94%
    08:00 +10°C° 0 mm 3 mps 757 mmHg 91%
    09:00 +10°C° 0 mm 3 mps 757 mmHg 88%
    10:00 +11°C° 0 mm 3 mps 758 mmHg 85%
    11:00 +11°C° 0.2 mm 3 mps 758 mmHg 83%
    12:00 +11°C° 0.2 mm 3 mps 758 mmHg 81%
    13:00 +12°C° 0.2 mm 4 mps 759 mmHg 79%
    14:00 +11°C° 0.3 mm 3 mps 759 mmHg 80%
    15:00 +11°C° 0.3 mm 3 mps 759 mmHg 82%
    16:00 +10°C° 0.3 mm 3 mps 760 mmHg 83%
    17:00 +10°C° 0 mm 3 mps 760 mmHg 85%
    18:00 +9°C° 0 mm 3 mps 761 mmHg 87%
    19:00 +8°C° 0 mm 2 mps 762 mmHg 90%
    20:00 +8°C° 0 mm 2 mps 762 mmHg 90%
    21:00 +8°C° 0 mm 2 mps 763 mmHg 91%
    22:00 +7°C° 0 mm 2 mps 763 mmHg 91%
    23:00 +7°C° 0 mm 2 mps 763 mmHg 91%

    16 November, Saturday

    Time Temperature Precipitation Wind Pressure Humidity
    00:00 +8°C° 0 mm 2 mps 763 mmHg 91%
    01:00 +8°C° 0 mm 2 mps 763 mmHg 91%
    02:00 +8°C° 0 mm 2 mps 763 mmHg 91%
    03:00 +7°C° 0 mm 2 mps 763 mmHg 92%
    04:00 +7°C° 0 mm 2 mps 763 mmHg 92%
    05:00 +8°C° 0.1 mm 2 mps 763 mmHg 93%
    06:00 +8°C° 0.1 mm 2 mps 763 mmHg 93%
    07:00 +8°C° 0.1 mm 2 mps 763 mmHg 94%
    08:00 +8°C° 0.4 mm 2 mps 763 mmHg 93%
    09:00 +8°C° 0.4 mm 2 mps 763 mmHg 93%
    10:00 +9°C° 0.4 mm 2 mps 762 mmHg 93%
    11:00 +9°C° 0.2 mm 2 mps 762 mmHg 92%
    12:00 +9°C° 0.2 mm 2 mps 761 mmHg 92%
    13:00 +9°C° 0.2 mm 2 mps 761 mmHg 92%
    14:00 +9°C° 0.3 mm 2 mps 760 mmHg 92%
    15:00 +8°C° 0.3 mm 2 mps 760 mmHg 92%
    16:00 +8°C° 0.3 mm 2 mps 759 mmHg 92%
    17:00 +8°C° 0.1 mm 2 mps 759 mmHg 91%
    18:00 +8°C° 0.1 mm 2 mps 758 mmHg 91%
    19:00 +8°C° 0.1 mm 3 mps 758 mmHg 90%
    20:00 +8°C° 0.4 mm 3 mps 757 mmHg 90%
    21:00 +8°C° 0.4 mm 3 mps 757 mmHg 91%
    22:00 +8°C° 0.4 mm 3 mps 757 mmHg 91%
    23:00 +8°C° 3.7 mm 3 mps 756 mmHg 93%

    17 November, Sunday

    Time Temperature Precipitation Wind Pressure Humidity
    00:00 +8°C° 3.7 mm 3 mps 756 mmHg 94%
    01:00 +8°C° 3.7 mm 3 mps 756 mmHg 96%
    02:00 +8°C° 3.6 mm 3 mps 756 mmHg 96%
    03:00 +9°C° 3.6 mm 3 mps 756 mmHg 96%
    04:00 +9°C° 3.6 mm 3 mps 756 mmHg 96%
    05:00 +9°C° 0.4 mm 3 mps 756 mmHg 96%
    06:00 +9°C° 0.4 mm 3 mps 756 mmHg 96%
    07:00 +9°C° 0.4 mm 2 mps 755 mmHg 96%
    08:00 +9°C° 0 mm 3 mps 756 mmHg 96%
    09:00 +9°C° 0 mm 3 mps 756 mmHg 95%
    10:00 +10°C° 0 mm 3 mps 756 mmHg 94%
    11:00 +10°C° 0.1 mm 3 mps 756 mmHg 94%
    12:00 +10°C° 0.1 mm 3 mps 755 mmHg 94%
    13:00 +10°C° 0.1 mm 3 mps 755 mmHg 94%
    14:00 +11°C° 0 mm 3 mps 755 mmHg 94%
    15:00 +11°C° 0 mm 4 mps 755 mmHg 95%
    16:00 +11°C° 0 mm 4 mps 755 mmHg 95%
    17:00 +10°C° 0 mm 4 mps 756 mmHg 95%
    18:00 +10°C° 0 mm 3 mps 756 mmHg 95%
    19:00 +10°C° 0 mm 2 mps 756 mmHg 95%
    20:00 +10°C° 0 mm 2 mps 756 mmHg 95%
    21:00 +9°C° 0 mm 2 mps 756 mmHg 95%
    22:00 +10°C° 0 mm 1 mps 757 mmHg 96%
    23:00 +10°C° 0 mm 1 mps 756 mmHg 95%

    18 November, Monday

    Time Temperature Precipitation Wind Pressure Humidity
    00:00 +9°C° 0 mm 1 mps 756 mmHg 95%
    01:00 +9°C° 0 mm 1 mps 756 mmHg 95%
    02:00 +9°C° 0 mm 1 mps 756 mmHg 95%
    03:00 +9°C° 0 mm 1 mps 755 mmHg 94%
    04:00 +9°C° 0 mm 1 mps 755 mmHg 94%
    05:00 +9°C° 0 mm 1 mps 754 mmHg 95%
    06:00 +9°C° 0 mm 1 mps 754 mmHg 95%
    07:00 +9°C° 0 mm 1 mps 753 mmHg 96%
    08:00 +9°C° 0 mm 1 mps 753 mmHg 94%
    09:00 +10°C° 0 mm 1 mps 752 mmHg 93%
    10:00 +9°C° 0 mm 2 mps 752 mmHg 91%
    11:00 +9°C° 0 mm 2 mps 752 mmHg 90%
    12:00 +10°C° 0 mm 3 mps 751 mmHg 88%
    13:00 +10°C° 0 mm 4 mps 751 mmHg 86%
    14:00 +8°C° 0 mm 4 mps 751 mmHg 88%
    15:00 +8°C° 0 mm 4 mps 750 mmHg 89%
    16:00 +7°C° 0 mm 4 mps 750 mmHg 91%
    17:00 +7°C° 0 mm 4 mps 751 mmHg 91%
    18:00 +6°C° 0 mm 4 mps 751 mmHg 91%
    19:00 +6°C° 0 mm 4 mps 751 mmHg 92%
    20:00 +6°C° 0 mm 4 mps 752 mmHg 92%
    21:00 +5°C° 0 mm 4 mps 752 mmHg 93%
    22:00 +5°C° 0 mm 4 mps 752 mmHg 94%
    23:00 +5°C° 0.1 mm 3 mps 753 mmHg 94%
    Show more